Vorticity
nan nan nan nan nan nan nan nan nan nan nan nan nan nan nan nan nan nan nan nan nan nan nan nan nan nan nan nan nan nan nan nan
nan 8 8 8 8 7 8 8 5 6 7 7 6 7 8 9 10 9 7 8 7 6 8 8 5 7 8 5 6 7 7 nan
nan 7 6 8 7 8 7 7 6 5 7 10 8 6 9 9 10 8 7 8 9 8 7 6 6 7 8 6 4 4 9 nan
nan 6 6 7 7 8 8 7 5 6 6 6 7 6 8 9 9 8 9 10 7 6 6 7 7 6 7 7 6 4 6 nan
nan 7 7 6 7 7 8 8 7 8 6 6 8 5 4 7 7 7 10 8 9 9 6 5 6 7 8 8 8 7 6 nan
nan 8 8 7 7 7 9 8 7 7 7 6 6 7 5 8 11 10 8 9 10 7 7 7 5 6 9 9 7 7 5 nan
nan 9 9 8 6 7 9 8 7 7 8 6 7 7 6 7 9 6 6 8 10 11 9 7 8 7 8 9 8 7 6 nan
nan 8 7 9 8 5 5 8 8 8 8 6 5 4 6 7 6 6 6 6 8 11 9 7 7 8 8 7 8 10 9 nan
nan 8 7 9 9 7 7 8 7 8 9 7 6 5 3 8 6 5 7 7 9 10 9 9 7 6 7 7 8 10 9 nan
nan 8 8 8 10 9 8 8 9 8 7 8 8 7 6 6 6 4 6 7 7 8 7 8 8 9 8 8 8 9 10 nan
nan 10 9 7 9 9 9 9 9 8 7 6 8 9 7 6 8 8 5 6 6 6 7 8 9 10 12 9 8 9 9 nan
nan 9 10 10 10 9 8 9 9 9 9 8 8 9 9 7 7 8 9 9 9 8 8 9 9 9 8 7 6 14 11 nan
nan 12 11 11 9 9 8 8 9 9 9 9 9 9 9 9 9 9 9 9 9 10 9 8 7 7 7 6 9 12 10 nan
nan 13 11 10 10 10 10 9 9 9 9 8 8 9 9 8 9 10 9 9 8 8 8 8 8 9 9 11 12 9 10 nan
nan 10 11 11 11 11 10 9 11 10 9 8 8 9 8 8 9 10 8 7 9 9 9 9 10 12 13 13 13 12 12 nan
nan 9 12 11 10 11 12 13 12 10 9 9 8 9 11 10 9 9 10 11 12 10 10 11 12 13 15 14 12 13 12 nan
nan 10 11 14 12 11 12 15 14 11 10 10 12 12 13 14 14 13 12 12 14 16 16 16 14 14 17 16 14 13 14 nan
nan 13 12 15 14 16 16 14 16 15 12 13 14 14 12 12 14 16 16 13 12 14 15 16 15 16 21 18 16 14 13 nan
nan nan nan nan nan nan nan nan nan nan nan nan nan nan nan nan nan nan nan nan nan nan nan nan nan nan nan nan nan nan nan nan
CAPE
7 7 4 7 9 2 3 5 1 0 0 0 1 4 3 2 0 55 89 77 47 28 7 0 0 0 0 0 0 0 0 0
10 10 6 7 10 4 1 2 1 0 5 7 5 1 17 1 1 38 52 50 43 56 8 0 0 0 0 0 0 0 0 0
4 6 12 6 7 5 3 2 0 0 3 1 0 0 0 4 6 9 13 16 29 51 32 9 0 1 1 0 0 0 0 0
0 2 12 5 6 4 3 2 2 0 0 0 0 0 0 5 6 2 27 31 28 12 23 33 48 27 6 9 0 0 1 0
0 1 3 12 2 4 2 1 1 2 0 0 0 0 0 0 0 7 3 20 41 27 38 64 74 61 53 14 0 0 1 0
0 0 1 0 3 2 4 0 0 0 0 0 0 0 1 0 0 0 5 55 70 70 102 117 94 79 46 31 0 0 0 6
0 0 0 2 2 1 1 1 1 0 0 0 0 0 0 0 0 0 2 9 16 31 70 84 74 59 60 44 29 15 3 0
0 0 0 0 2 3 0 0 4 1 0 1 0 0 0 0 0 0 0 0 0 0 20 33 36 61 56 87 91 42 2 1
0 0 0 0 0 1 1 1 3 5 1 0 0 0 0 0 0 0 0 0 0 0 0 4 13 25 48 74 149 130 19 22
0 0 0 0 0 1 1 0 0 3 2 0 0 0 0 0 0 0 0 0 0 0 0 0 5 10 50 83 172 109 48 31
2 0 0 0 0 0 2 0 2 1 1 0 0 0 0 0 0 0 0 0 0 0 0 0 0 6 83 101 64 45 20 2
8 12 4 0 0 0 1 3 0 0 0 0 0 0 0 0 0 0 0 0 0 0 0 0 0 0 0 2 12 12 0 0
0 16 2 0 0 0 0 0 0 0 0 0 0 0 0 0 0 0 0 0 0 0 0 0 0 0 0 0 1 0 0 0
0 0 13 26 1 0 0 0 0 0 0 0 0 0 0 0 0 0 0 0 0 0 0 0 0 0 0 0 0 0 0 0
0 0 1 34 24 4 0 0 0 0 0 0 0 0 0 0 0 0 0 0 0 1 5 12 2 0 0 0 0 0 0 0
0 3 9 2 14 14 2 0 0 0 0 0 0 0 0 0 0 0 0 0 2 14 10 6 0 0 0 0 0 0 0 1
0 0 0 0 0 9 0 0 0 0 0 0 0 0 0 0 0 0 3 5 2 1 0 0 0 0 0 1 0 0 0 0
0 0 0 0 0 0 0 0 0 0 0 0 0 0 0 2 1 0 0 0 0 0 0 0 0 0 1 1 0 0 0 0
0 0 0 0 0 0 0 1 2 2 1 2 1 0 0 0 0 0 0 0 0 1 1 1 1 1 0 0 0 0 0 1